Current Version              Previous Version:    01  02  03  04  05  06  07  08  09  10  11  12  13  14  15  16  17  18  19  20  21  22  23  24  25  26  27  28  29  30  
   31  32  33  34  35  36  37  38  39  40  41  42  43  44  45  46  47  48  49  50  51  52  53  54  55  56  57  58  59  60  

[Printable]
908
ASUS44 KFWD 221210
RWRTX
NORTH TEXAS HOURLY WEATHER ROUNDUP
NATIONAL WEATHER SERVICE FORT WORTH TX
700 AM CDT MON SEP 22 2014

NOTE: "FAIR" INDICATES FEW OR NO CLOUDS BELOW 12,000 FEET WITH NO
SIGNIFICANT WEATHER AND/OR OBSTRUCTIONS TO VISIBILITY.

TXZ118-119-221300-
DALLAS/FORT WORTH METROPLEX

CITY           SKY/WX    TMP DP  RH WIND       PRES   REMARKS
DFW AIRPORT    MOCLDY    74  56  53 NE10      30.16R
6HR MIN TEMP:  73; 6HR MAX TEMP:  80;

DALLAS LOVE    MOCLDY    74  57  55 NE8       30.16R
6HR MIN TEMP:  74; 6HR MAX TEMP:  79; 6HR PCP: TRACE;

FTW MEACHAM    MOCLDY    73  56  54 NE8       30.16R
6HR MIN TEMP:  73; 6HR MAX TEMP:  79;

DAL-EXECUTIVE  PTCLDY    75  59  57 NE8       30.15R
6HR MIN TEMP:  75; 6HR MAX TEMP:  81;

FTW-ALLIANCE   MOCLDY    71  53  52 NE10      30.16R
6HR MIN TEMP:  71; 6HR MAX TEMP:  77;

FTW-NAS-JRB    MOCLDY    76  55  48 NE7       30.20S
6HR MIN TEMP:  76; 6HR MAX TEMP:  83;

FTW-SPINKS     PTCLDY    72  61  68 NE7       30.17S
ARLINGTON      MOCLDY    75  57  53 NE9       30.16R
6HR MIN TEMP:  75; 6HR MAX TEMP:  82;

GRAND PRAIRIE  CLEAR     73  57  56 MISG      30.17R
ADDISON        CLOUDY    73  54  49 NE9G16    30.17R
MESQUITE       MOCLDY    72  63  73 N5        30.16R
LANCASTER      PTCLDY    71  62  74 NE6       30.17R
6HR MIN TEMP:  71; 6HR MAX TEMP:  79;

$$

TXZ091>094-102>105-117-120-121-131>134-221300-
NORTH CENTRAL TEXAS

CITY           SKY/WX    TMP DP  RH WIND       PRES   REMARKS
SHRMAN/DENISON CLEAR     65  53  65 NE3       30.21R
6HR MIN TEMP:  64; 6HR MAX TEMP:  74;

GAINESVILLE    MOCLDY    65  53  64 N5        30.22R
6HR MIN TEMP:  65; 6HR MAX TEMP:  73;

BOWIE          PTCLDY    68  49  50 NE5       30.20S
6HR MIN TEMP:  68; 6HR MAX TEMP:  73;

BRIDGEPORT     CLOUDY    70  50  50 NE5       30.20S
6HR MIN TEMP:  69; 6HR MAX TEMP:  75;

DECATUR        PTCLDY    69  52  54 NE9       30.19R
6HR MIN TEMP:  68; 6HR MAX TEMP:  73;

DENTON         PTCLDY    68  55  63 NE8       30.18R
6HR MIN TEMP:  66; 6HR MAX TEMP:  76; 6HR PCP:  0.02;

MCKINNEY       PTCLDY    69  55  60 NE8       30.17R
6HR MIN TEMP:  68; 6HR MAX TEMP:  76; 6HR PCP:  0.03;

GREENVILLE     CLEAR     68  61  77 N5        30.18R
ROCKWALL       CLOUDY    71  59  67 NE8       30.16R
6HR MIN TEMP:  70; 6HR MAX TEMP:  77;

TERRELL        MOCLDY    72  66  81 NE10      30.15R
6HR MIN TEMP:  72; 6HR MAX TEMP:  79;

WAXAHACHIE     MOCLDY    72  62  72 NE5       30.17R
6HR MIN TEMP:  72; 6HR MAX TEMP:  79;

CLEBURNE       PTCLDY    72  66  83 NE8       30.17R
GRANBURY       PTCLDY    73  60  65 NE3       30.18R
6HR MIN TEMP:  73; 6HR MAX TEMP:  76;

$$

TXZ083>090-098>101-113>116-127>130-139>142-154-155-221300-
WESTERN NORTH TEXAS

CITY           SKY/WX    TMP DP  RH WIND       PRES   REMARKS
WICHITA FALLS  MOCLDY    67  54  63 NE9       30.22R
6HR MIN TEMP:  67; 6HR MAX TEMP:  72;

WF-KICKAPOO    PTCLDY    67  55  65 NE7       30.23R
6HR MIN TEMP:  67; 6HR MAX TEMP:  72;

VERNON         CLEAR     67  56  68 NE6       30.24R
6HR MIN TEMP:  67; 6HR MAX TEMP:  94;

ABILENE        PTCLDY    70  65  84 E10       30.20R
6HR MIN TEMP:  70; 6HR MAX TEMP:  74;

ABILENE-DYESS  PTCLDY    69  58  69 E3        30.19R
6HR MIN TEMP:  69; 6HR MAX TEMP:  72;

BRECKENRIDGE   PTCLDY    72  57  60 E5        30.19R
6HR MIN TEMP:  72; 6HR MAX TEMP:  78;

GRAHAM         CLEAR     70  49  48 NE3       30.18R
6HR MIN TEMP:  70; 6HR MAX TEMP:  76;

MINERAL WELLS  PTCLDY    70  52  52 NE7       30.16R
6HR MIN TEMP:  70; 6HR MAX TEMP:  76;

STEPHENVILLE   CLEAR     70  65  86 N5        30.20R
6HR MIN TEMP:  70; 6HR MAX TEMP:  75;

COMANCHE       PTCLDY    67  65  94 NW6       30.18R
6HR MIN TEMP:  67; 6HR MAX TEMP:  75;

BROWNWOOD      CLOUDY    68  64  88 NE3       30.18R
COLEMAN        CLOUDY    68  64  88 CALM      30.19R
6HR MIN TEMP:  68; 6HR MAX TEMP:  73;

BRADY          CLEAR     66  64  94 CALM      30.17R
$$

TXZ143>147-156>162-174-175-221300-
CENTRAL TEXAS

CITY           SKY/WX    TMP DP  RH WIND       PRES   REMARKS
WACO           CLEAR     73  68  84 NE9       30.13R
6HR MIN TEMP:  68; 6HR MAX TEMP:  73;

WACO-TSTC      CLEAR     72  68  88 NE6       30.13
WACO-MCGREGOR  CLEAR     70  63  78 N6        30.15R
6HR MIN TEMP:  68; 6HR MAX TEMP:  73;

HILLSBORO      PTCLDY    73  67  80 NE8       30.14R
6HR MIN TEMP:  70; 6HR MAX TEMP:  77;

CORSICANA      PTCLDY    73  68  84 NE3       30.14R
6HR MIN TEMP:  73; 6HR MAX TEMP:  76;

MEXIA          CLEAR     72  69  90 NE6       30.12R
6HR MIN TEMP:  72; 6HR MAX TEMP:  74;

HEARNE         CLEAR     69  67  95 CALM      30.11R
6HR MIN TEMP:  69; 6HR MAX TEMP:  72;

CAMERON        CLEAR     72  67  85 CALM      30.11S
6HR MIN TEMP:  69; 6HR MAX TEMP:  74;

TEMPLE         CLEAR     70  63  78 N6        30.12S
6HR MIN TEMP:  68; 6HR MAX TEMP:  72;

KILLEEN        MOCLDY    70  64  83 N9        30.14R
KILLEEN-SKYLRK PTCLDY    70  61  73 NW3       30.12S
6HR MIN TEMP:  68; 6HR MAX TEMP:  72;

FORT HOOD      PTCLDY    73  65  75 NW3       30.13R
6HR MIN TEMP:  72; 6HR MAX TEMP:  77;

GATESVILLE     PTCLDY    68  64  88 CALM      30.17R
HAMILTON       PTCLDY    70  65  84 NE3       30.17R
6HR MIN TEMP:  69; 6HR MAX TEMP:  75;

LAMPASAS       MOCLDY    71  68  91 N7        30.15R
6HR MIN TEMP:  67; 6HR MAX TEMP:  71;

$$

TXZ095>097-106>112-122>126-135>138-148>153-164>167-221300-
EAST TEXAS

CITY           SKY/WX    TMP DP  RH WIND       PRES   REMARKS
PARIS          CLEAR     63  52  67 NE8       30.20R
6HR MIN TEMP:  63; 6HR MAX TEMP:  73;

SULPHUR SPRNGS CLEAR     69  59  69 NE8       30.19S
6HR MIN TEMP:  69; 6HR MAX TEMP:  76;

MOUNT PLEASANT CLOUDY    69  56  64 NE5       30.18S
6HR MIN TEMP:  69; 6HR MAX TEMP:  76;

GILMER         CLEAR     66  63  88 N5        30.17R
MINEOLA        PTCLDY    72  57  60 NE3       30.16R
TYLER          PTCLDY    73  68  84 NE10      30.13R
6HR MIN TEMP:  73; 6HR MAX TEMP:  76; 6HR PCP: TRACE;

LONGVIEW       MOCLDY    74  58  57 NE9       30.13R
6HR MIN TEMP:  74; 6HR MAX TEMP:  78;

MARSHALL       PTCLDY    75  57  53 NE5       30.16R
6HR MIN TEMP:  75; 6HR MAX TEMP:  78;

ATHENS         PTCLDY    72  68  88 NE6       30.12R
PALESTINE      PTCLDY    74  71  88 NE8       30.12R
JACKSONVILLE   PTCLDY    72  70  92 NE7       30.14S
HENDERSON      PTCLDY    72  65  78 NE8       30.14R
6HR MIN TEMP:  71; 6HR MAX TEMP:  75;

NACOGDOCHES    CLEAR     73  66  78 NE5       30.11R
6HR MIN TEMP:  72; 6HR MAX TEMP:  75;

LUFKIN         CLEAR     76  68  76 NE8       30.08R
6HR MIN TEMP:  74; 6HR MAX TEMP:  77;

$$

SUPPLEMENTAL OBSERVATIONS (CENTRAL)

CITY           SKY/WX    TMP DP  RH WIND       PRES   REMARKS
PAT MAYSE LAKE   N/A     61  57  88 N5          N/A
MCGREGOR         N/A     70  66  88 N5          N/A
$$

SUPPLEMENTAL OBSERVATIONS (WEST)

CITY           SKY/WX    TMP DP  RH WIND       PRES   REMARKS
MILLERS CREEK    N/A     68  59  73 NE7         N/A
GRANBURY         N/A     72  59  64 NE5         N/A
HAMBY            N/A     70  66  88 E9          N/A
IVIE RESERVOIR   N/A     70  66  88 SE2         N/A
COLORADO BEND    N/A     64  61  88 CALM        N/A
$$

SUPPLEMENTAL OBSERVATIONS (EAST)